Skip Page Navigation
NASA JPL Caltech
NASA Logo - Jet Propulsion Laboratory + View the NASA Portal
+ Center for Near-Earth Object Studies
JPL Home Earth Solar System Stars & Galaxies Technology
JPL Solar System Dynamics
BODIES ORBITS EPHEMERIDES TOOLS PHYSICAL DATA DISCOVERY FAQ SITE MAP
JPL Small-Body Database Browser
Search: [ help ]  
2212 Hephaistos (1978 SB)
Classification: Apollo [NEO]          SPK-ID: 2002212
Ephemeris | Orbit Diagram | Orbital Elements | Mission Design | Physical Parameters | Discovery Circumstances | Close-Approach Data ]

[ show orbit diagram ]
Orbital Elements at Epoch 2459000.5 (2020-May-31.0) TDB
Reference: JPL 456 (heliocentric ecliptic J2000)
 Element Value Uncertainty (1-sigma)   Units 
e .8376666899459009 2.798e-08  
a 2.159195572535234 5.3892e-09 au
q .3505093643438003 6.0471e-08 au
i 11.55177703381632 5.7748e-06 deg
node 27.53023967518319 1.9975e-05 deg
peri 209.3949522884404 1.979e-05 deg
M 48.90011265950824 5.7109e-06 deg
tp 2458843.085854098266
(2019-Dec-25.58585410)
1.7943e-05 TDB
period 1158.874477840398
3.17
4.3387e-06
1.188e-08
d
yr
n .3106462407135518 1.163e-09 deg/d
Q 3.967881780726668 9.9036e-09 au
  Orbit Determination Parameters
   # obs. used (total)      2603  
   data-arc span      15316 days (41.93 yr)  
   first obs. used      1978-09-27  
   last obs. used      2020-09-02  
   planetary ephem.      DE431  
   SB-pert. ephem.      SB431-N16  
   condition code      0  
   norm. resid. RMS      .42741  
   source      ORB  
   producer      Otto Matic  
   solution date      2020-Sep-03 06:34:15  

Additional Information
 Earth MOID = .115888 au 
 Jupiter MOID = 1.16219 au 
 T_jup = 3.099 
[ hide covariance matrix ]
Orbital Elements at Epoch 2456225.5 (2012-Oct-25.0) TDB
Reference: JPL 456 (heliocentric ecliptic J2000)
 Element Value Uncertainty (1-sigma)   Units 
e .8374227870987458 2.8042e-08  
q .3514385452195887 6.065e-08 au
tp 2456524.755835581342
(2013-Aug-20.25583558)
1.2917e-05 TDB
node 27.697958581809 1.9871e-05 deg
peri 209.1836223344577 1.9686e-05 deg
i 11.57573676348545 5.784e-06 deg
  Orbit Determination Parameters
   # obs. used (total)      2603  
   data-arc span      15316 days (41.93 yr)  
   first obs. used      1978-09-27  
   last obs. used      2020-09-02  
   planetary ephem.      DE431  
   SB-pert. ephem.      SB431-N16  
   condition code      0  
   norm. resid. RMS      .42741  
   source      ORB  
   producer      Otto Matic  
   solution date      2020-Sep-03 06:34:15  

Additional Information
 Jupiter MOID = 1.16219 au 
 T_jup = 3.099 
Orbit Covariance (6×6)
  e q tp node peri i
e 7.863362695848466E-16 -1.700552621111194E-15 4.233339352672332E-14 3.922369772051784E-14 -4.092341439168551E-14 2.157315772566775E-14
q -1.700552621111194E-15 3.678432924724105E-15 -8.69444068500844E-14 -8.56920608110287E-14 8.974308053079015E-14 -4.649641432393338E-14
tp 4.233339352672332E-14 -8.69444068500844E-14 1.668508304525543E-10 1.955201574379751E-11 -3.283179334092348E-12 1.197515237344857E-11
node 3.922369772051784E-14 -8.56920608110287E-14 1.955201574379751E-11 3.948636435253844E-10 -3.857037617707497E-10 5.618614321054832E-11
peri -4.092341439168551E-14 8.974308053079015E-14 -3.283179334092348E-12 -3.857037617707497E-10 3.875303191160948E-10 -5.432020999201778E-11
i 2.157315772566775E-14 -4.649641432393338E-14 1.197515237344857E-11 5.618614321054832E-11 -5.432020999201778E-11 3.345464100639152E-11

Ephemeris | Orbit Diagram | Orbital Elements | Mission Design | Physical Parameters | Discovery Circumstances | Close-Approach Data ]

Physical Parameter Table
Parameter Symbol Value Units Sigma Reference Notes
absolute magnitude H 13.3   n/a MPO502174  
diameter diameter 5.7 km n/a Hazards due to Comets and Asteroids (1994), Ed. T. Gehrels, pp.540-543 based on assumed medium albedo (0.15)
rotation period rot_per 20. h n/a LCDB (Rev. 2019-August); Warner et al., 2009 lower-limit; Result based on fragmentary lightcurve(s), may be completely wrong.
Published Reference List:
[Pravec, P.; Wolf, M.; Sarounova, L.; Mottola, S.; et al. (1997) Icarus 130, 275-286.]
geometric albedo albedo 0.163   0.027 urn:nasa:pds:neowise_diameters_albedos::2.0[neos] (http://adsabs.harvard.edu/abs/2011ApJ...743..156M)  
B-V BV 0.766   0.037 EAR-A-5-DDR-UBV-MEAN-VALUES-V1.2 #obs=2; phase (min.=15.38, mean=15.38, max.=15.38) deg.
U-B UB 0.397   0.031 EAR-A-5-DDR-UBV-MEAN-VALUES-V1.2 #obs=1; phase=15.38 deg.
Tholen spectral type spec_T SG   n/a EAR-A-5-DDR-TAXONOMY-V4.0 used 2 color indices

2212 Hephaistos           Discovered 1978 Sept. 27 by L. I. Chernykh at the Crimean Astrophysical Observatory.
This Apollo-type object is named for the god of fire and blacksmiths.
NOTE: some special characters may not display properly (any characters within {} are an attempt to place the proper accent above a character)
Reference: MPC 5849Last Updated: 2006-03-21

[ hide close-approach data ]
Close-Approach Data   ...sorted by Date/Time (TDB)
Date/Time (TDB) Time Uncertainty
(days_HH:MM)
Body Nominal Distance (au) Minimum Distance (au) Maximum Distance (au) V-relative (km/s) V-infinity (km/s) JD (TDB) Time Uncertainty (minutes) Semi-major axis (km) Semi-minor axis (km) range-LOV angle (deg) N-sigma BP Orbit Ref. Reference Modified
1905-Mar-14 06:31 < 00:01 Venus 0.117898916441666 0.117898437342514 0.117899395564201 29.4211005384243 29.4204744944519 2416918.771271971 0.151692098466036 97.9480103055192 11.7083570041723 77.6335545423984 1470314.00133877 T 456 CATAB v2.0f-lin.ifort 2020-Sep-03 06:34:29 2020-Sep-03 06:35
1908-Jun-14 20:58 < 00:01 Mercury 0.0886994716140618 0.0886984113919765 0.0887005318384109 27.3232263416326 27.3231655740941 2418107.373902297 0.383598364357878 57.4624773814526 6.4191637126358 23.2186274678518 838174.039350307 T 456 CATAB v2.0f-lin.ifort 2020-Sep-03 06:34:29 2020-Sep-03 06:35
1911-Oct-04 11:03 < 00:01 Earth 0.45925699967207 0.459255218372373 0.459258780972524 42.3474223380067 42.3472853349381 2419313.960723933 0.122241674647107 93.7340744994014 13.6063583769692 18.8301248839021 1734540.08365209 T 456 CATAB v2.0f-lin.ifort 2020-Sep-03 06:34:29 2020-Sep-03 06:35
1921-Feb-12 21:12 < 00:01 Earth 0.372572518196586 0.372570686459117 0.372574349942146 20.0996218511114 20.0992660416464 2422733.383596324 0.347814203747586 126.727433988595 15.299419945422 44.2879624707047 2694531.84640682 T 456 CATAB v2.0f-lin.ifort 2020-Sep-03 06:34:29 2020-Sep-03 06:35
1921-Mar-21 11:53 < 00:01 Mercury 0.0931550982355017 0.0931538127570736 0.0931563837174723 27.6605142588874 27.6604571034248 2422769.995176088 0.48377648874179 70.2747849061397 6.44609215091283 24.3037879445375 903249.149780286 T 456 CATAB v2.0f-lin.ifort 2020-Sep-03 06:34:29 2020-Sep-03 06:35
1927-Sep-04 11:25 < 00:01 Venus 0.118756828974481 0.11875529777082 0.118758360226104 33.648139864102 33.647596422603 2425127.975909126 0.174788991619117 142.553799478127 11.4664278880455 57.9085415228063 1303726.4215845 T 456 CATAB v2.0f-lin.ifort 2020-Sep-03 06:34:29 2020-Sep-03 06:35
1927-Sep-19 21:49 < 00:01 Earth 0.192168032896755 0.192166524402263 0.19216954140855 32.5745806111373 32.5741549586096 2425143.409110062 0.152418642050892 119.304278364997 14.2627338060713 51.4246468149892 1564509.66043467 T 456 CATAB v2.0f-lin.ifort 2020-Sep-03 06:34:29 2020-Sep-03 06:35
1929-Apr-27 13:29 < 00:01 Jupiter 1.23697546167896 1.23697485790931 1.23697606544876 8.13123076245672 8.04657740550144 2425729.061589532 0.133877871075234 40.4796149853459 16.3646632007025 47.4441658849639 5735861.70767951 T 456 CATAB v2.0f-lin.ifort 2020-Sep-03 06:34:29 2020-Sep-03 06:35
1933-Dec-13 05:59 < 00:01 Mercury 0.0364951995607102 0.0364909299243103 0.0364994691971143 38.3059327934928 38.3058274462954 2427419.749093691 0.243557392458167 212.910505665761 5.39170040968032 -0.186647559450039 25764.0935288309 T 456 CATAB v2.0f-lin.ifort 2020-Sep-03 06:34:29 2020-Sep-03 06:35
1937-Jan-15 13:24 < 00:01 Earth 0.270819732253861 0.270818133949472 0.270821330573106 34.1242595691683 34.1239712519028 2428549.058447435 0.181941969554182 129.250292078867 14.5778687576699 -52.4011080038766 2173746.40967156 T 456 CATAB v2.0f-lin.ifort 2020-Sep-03 06:34:29 2020-Sep-03 06:35
1937-Mar-05 10:30 < 00:01 Mercury 0.0510781464854893 0.0510770995214859 0.0510791936905783 32.7086590645102 32.7085709135819 2428597.937524106 0.330052388598991 183.901410793041 6.4390112908507 -73.6245938109141 1138785.49888152 T 456 CATAB v2.0f-lin.ifort 2020-Sep-03 06:34:29 2020-Sep-03 06:35
1940-Apr-02 12:01 < 00:01 Venus 0.121530927398904 0.121529583942384 0.12153227092068 33.4464343781887 33.445900138958 2429722.001014673 0.214713102032576 157.517719292884 11.5339931837393 -65.1600650923894 1417102.9571655 T 456 CATAB v2.0f-lin.ifort 2020-Sep-03 06:34:29 2020-Sep-03 06:35
1941-Jun-08 02:10 < 00:01 Jupiter 1.69936924246139 1.69936830084908 1.69937018407369 10.4149153741131 10.3669472508129 2430153.589934690 0.143864243532142 48.8641613160978 30.8391317707383 -22.3299255536967 3551641.58420176 T 456 CATAB v2.0f-lin.ifort 2020-Sep-03 06:34:29 2020-Sep-03 06:35
1943-Aug-19 04:32 < 00:01 Earth 0.462625827667977 0.462623264426341 0.462628390912952 16.0530006227197 16.0526418403348 2430955.688813189 0.893846133746652 142.237595447945 13.9596996444144 -26.1532282474257 2855555.99269581 T 456 CATAB v2.0f-lin.ifort 2020-Sep-03 06:34:29 2020-Sep-03 06:35
1962-Aug-20 12:20 < 00:01 Mercury 0.0751284384436695 0.075126367185444 0.0751305097037271 27.5486430139136 27.5485718564987 2437897.014050659 0.465121901422031 104.93185119726 5.46218240874129 10.1772573444661 378018.555872093 T 456 CATAB v2.0f-lin.ifort 2020-Sep-03 06:34:29 2020-Sep-03 06:35
1962-Sep-21 05:28 < 00:01 Venus 0.130248051255808 0.130246089035386 0.130250013504134 26.2168257797585 26.2161898299062 2437928.728105101 0.209391558288163 136.871473445217 11.3259137686788 -44.5576593726572 1239824.21560456 T 456 CATAB v2.0f-lin.ifort 2020-Sep-03 06:34:29 2020-Sep-03 06:35
